[[{"header":{"parameterUnit":"m.s-1","parameterCategory":1,"la1":30.2991,"la2":30.254,"lo1":-89.0895,"lo2":-89.0444,"dy":0.0017,"dx":0.0017,"nx":28,"ny":28,"refTime":"2025-06-11T09:00:00:Z","depth":0,"parameterNumber":2,"parameterNumberName":"U-component_of_WINDS"},"data":[0,0,0,0,0,0,0,0,0,0,0,0,0,0,0,0,0,0,0,0,0,0,0,0,0,0,0,0,0,0,0,0,0,0,0,0,0,0,0,0,0,0,0,0,0,0,0,0,0,0,0,0,0,0,0,0,0,0,-1.5258,-1.5258,0,-1.5258,-1.5258,-1.5258,-1.5242,-1.5241,-1.5241,-1.5241,-1.5241,-1.5241,-1.5242,0,0,0,0,0,0,0,0,0,0,0,0,0,-1.5246,-1.5246,-1.5258,-1.5258,-1.5258,-1.5258,-1.5258,-1.5258,-1.5242,-1.5241,-1.5241,-1.524,-1.5241,-1.5241,-1.5242,0,0,0,0,0,0,0,0,0,0,0,0,0,-1.5249,-1.5246,-1.5258,-1.525,-1.5249,-1.5258,-1.5258,-1.5258,-1.5242,-1.5241,-1.5241,-1.524,-1.5241,-1.5241,-1.5242,-1.5258,0,0,-1.5244,-1.5244,0,0,0,0,0,0,0,0,-1.5249,-1.525,-1.5251,-1.5251,-1.525,-1.5249,-1.5254,-1.5258,-1.5242,-1.5245,-1.5241,-1.524,-1.5244,-1.5245,-1.5246,-1.5258,-1.5258,-1.5244,-1.5244,-1.5244,-1.5245,0,0,0,0,0,0,0,-1.5249,-1.5249,-1.5258,-1.5251,-1.525,-1.5247,-1.5247,-1.5254,-1.5248,-1.5245,-1.5243,-1.5243,-1.5244,-1.5245,-1.5246,-1.5258,-1.5244,-1.5244,-1.5245,-1.5245,-1.5283,-1.5284,0,0,0,0,0,0,-1.525,-1.5249,-1.5258,-1.5258,-1.5248,-1.5248,-1.5247,-1.525,-1.5248,-1.5247,-1.5244,-1.5243,-1.5245,-1.5245,-1.5246,-1.5264,-1.5244,-1.5245,-1.5245,-1.5283,-1.5284,-1.5284,0,0,0,0,0,0,-1.5249,-1.525,-1.5258,-1.5253,-1.5254,-1.5248,-1.5252,-1.525,-1.5252,-1.5248,-1.5246,-1.5247,-1.5244,-1.5245,-1.5255,-1.5264,-1.5245,-1.5246,-1.5282,-1.5283,-1.5284,-1.5302,0,0,0,0,0,0,-1.5249,-1.525,-1.5256,-1.5254,-1.5254,-1.5267,-1.5252,-1.5251,-1.5253,-1.5251,-1.525,-1.5249,-1.5244,-1.5254,-1.5256,-1.5265,-1.5246,-1.5281,-1.5282,-1.5284,-1.53,-1.5303,-1.5306,0,0,0,0,0,-1.5249,-1.5262,-1.5257,-1.5258,-1.5262,-1.5268,-1.5268,-1.5262,-1.5254,-1.526,-1.5257,-1.5249,-1.5263,-1.5255,-1.5257,-1.5266,-1.5281,-1.5282,-1.5284,-1.5299,-1.5302,-1.5305,0,0,0,0,0,0,-1.5266,-1.5261,-1.5256,-1.5268,-1.5268,-1.5265,-1.5272,-1.5266,-1.5268,-1.5267,-1.5259,-1.5259,-1.527,-1.5269,-1.5261,-1.5282,-1.527,-1.5272,-1.5282,-1.5285,-1.5288,-1.5287,-1.5247,0,0,0,0,0,-1.5271,-1.5276,-1.5272,-1.5283,-1.5284,-1.5278,-1.528,-1.5275,-1.5275,-1.5276,-1.5274,-1.5274,-1.5279,-1.5282,-1.5286,-1.53,-1.5299,-1.5307,-1.531,-1.5312,-1.5314,-1.5321,-1.5324,-1.5289,-1.5289,-1.5289,0,0,-1.5282,-1.528,-1.5284,-1.5287,-1.5286,-1.5292,-1.5278,-1.5285,-1.5289,-1.5277,-1.5286,-1.5284,-1.5285,-1.5297,-1.5302,-1.5297,-1.5323,-1.5314,-1.5316,-1.5316,-1.5323,-1.5326,-1.5329,-1.529,-1.529,-1.529,0,0,-1.5305,-1.5304,-1.5313,-1.5313,-1.5312,-1.5308,-1.5311,-1.5308,-1.5307,-1.5316,-1.5307,-1.5312,-1.5319,-1.532,-1.5321,-1.5344,-1.5337,-1.5345,-1.5359,-1.5366,-1.5369,-1.5372,-1.5379,-1.5382,-1.5347,-1.5347,-1.5347,0,-1.5318,-1.5326,-1.5319,-1.5326,-1.5327,-1.5316,-1.5325,-1.5326,-1.5327,-1.5328,-1.5322,-1.5331,-1.533,-1.5342,-1.5348,-1.5349,-1.5352,-1.5345,-1.5369,-1.5372,-1.5374,-1.5381,-1.5384,-1.5348,-1.5348,-1.5348,-1.5348,0,-1.5343,-1.5348,-1.5356,-1.5357,-1.5359,-1.5367,-1.5361,-1.5364,-1.5359,-1.5356,-1.5365,-1.5364,-1.5368,-1.537,-1.5365,-1.5382,-1.5378,-1.5371,-1.5359,-1.5378,-1.5385,-1.5388,-1.535,-1.5349,-1.5349,-1.5349,0,0,-1.5376,-1.5372,-1.5375,-1.5375,-1.5374,-1.5378,-1.5386,-1.5389,-1.5392,-1.5393,-1.5399,-1.5406,-1.5399,-1.54,-1.5396,-1.5402,-1.5419,-1.5394,-1.5393,-1.5398,-1.5437,-1.5442,-1.5445,-1.5415,-1.5415,-1.5416,-1.5437,0,-1.5398,-1.541,-1.5404,-1.5417,-1.5422,-1.5412,-1.5418,-1.5418,-1.5416,-1.542,-1.5417,-1.5422,-1.5412,-1.5413,-1.5419,-1.5416,-1.5427,-1.5415,-1.542,-1.5421,-1.542,-1.5449,-1.5455,-1.5474,-1.5439,-1.544,-1.544,0,-1.5425,-1.5426,-1.544,-1.5437,-1.5439,-1.5445,-1.5447,-1.5451,-1.5451,-1.5449,-1.545,-1.5444,-1.5451,-1.544,-1.545,-1.5442,-1.5444,-1.5443,-1.5444,-1.5444,-1.5431,-1.5449,-1.5481,-1.5483,-1.5444,-1.5444,-1.5444,0,-1.5447,-1.5453,-1.5462,-1.5462,-1.546,-1.5464,-1.5463,-1.5462,-1.5464,-1.5466,-1.5467,-1.547,-1.5472,-1.5474,-1.5469,-1.5461,-1.548,-1.5468,-1.5478,-1.5478,-1.5482,-1.5482,-1.5514,-1.5484,-1.5484,-1.5484,-1.5484,0,-1.5472,-1.5481,-1.5472,-1.5478,-1.5487,-1.5479,-1.5489,-1.5487,-1.5486,-1.5491,-1.5483,-1.5488,-1.548,-1.5485,-1.5481,-1.5489,-1.549,-1.5489,-1.5487,-1.5489,-1.5489,-1.549,-1.5489,-1.5485,-1.5485,-1.5484,-1.5484,0,-1.5499,-1.5493,-1.5502,-1.5499,-1.5498,-1.5505,-1.5502,-1.5507,-1.5504,-1.551,-1.5511,-1.5506,-1.5511,-1.5505,-1.551,-1.5507,-1.5519,-1.5516,-1.5519,-1.5518,-1.5527,-1.5526,-1.5561,-1.5565,-1.5533,-1.5533,-1.5533,0,-1.5515,-1.5521,-1.5518,-1.5521,-1.552,-1.5524,-1.5526,-1.5519,-1.5521,-1.5521,-1.5526,-1.553,-1.5533,-1.554,-1.5537,-1.554,-1.5537,-1.5549,-1.5537,-1.5539,-1.5537,-1.5536,-1.5537,-1.5551,-1.5551,-1.5552,-1.5552,0,-1.5544,-1.554,-1.5543,-1.5545,-1.5547,-1.5549,-1.5549,-1.5552,-1.5545,-1.5548,-1.5552,-1.5554,-1.5558,-1.5562,-1.5564,-1.5563,-1.5556,-1.5556,-1.5558,-1.556,-1.5561,-1.556,-1.5525,-1.5555,-1.5554,-1.5554,-1.5554,-1.5554,-1.5565,-1.557,-1.5569,-1.5572,-1.5572,-1.5572,-1.5577,-1.5574,-1.5577,-1.5579,-1.5575,-1.558,-1.558,-1.5582,-1.5582,-1.5586,-1.5581,-1.5585,-1.5585,-1.5586,-1.5588,-1.5561,-1.5587,-1.5586,-1.5586,-1.5586,-1.5586,0,-1.5593,-1.5592,-1.5595,-1.5596,-1.5598,-1.5591,-1.5592,-1.5594,-1.5599,-1.5599,-1.5601,-1.5606,-1.561,-1.5606,-1.5609,-1.5613,-1.561,-1.5614,-1.5614,-1.5614,-1.5592,-1.559,-1.5617,-1.5617,-1.5617,-1.5617,-1.5617,-1.5617,-1.5608,-1.5616,-1.5613,-1.5621,-1.5619,-1.5624,-1.5624,-1.5625,-1.5625,-1.563,-1.5633,-1.5631,-1.5629,-1.5632,-1.5635,-1.5634,-1.5635,-1.564,-1.5638,-1.5618,-1.5615,-1.5612,-1.561,-1.5641,-1.5641,-1.5659,-1.566,-1.566]},{"header":{"parameterUnit":"m.s-1","parameterCategory":1,"la1":30.2991,"la2":30.254,"lo1":-89.0895,"lo2":-89.0444,"dy":0.0017,"dx":0.0017,"nx":28,"ny":28,"refTime":"2025-06-11T09:00:00:Z","depth":0,"parameterNumber":3,"parameterNumberName":"V-component_of_WINDS"},"data":[0,0,0,0,0,0,0,0,0,0,0,0,0,0,0,0,0,0,0,0,0,0,0,0,0,0,0,0,0,0,0,0,0,0,0,0,0,0,0,0,0,0,0,0,0,0,0,0,0,0,0,0,0,0,0,0,0,0,2.1327,2.1327,0,2.1329,2.1329,2.1329,2.1282,2.128,2.1279,2.1278,2.128,2.1281,2.1282,0,0,0,0,0,0,0,0,0,0,0,0,0,2.1281,2.1282,2.1327,2.1327,2.1327,2.1329,2.1329,2.1329,2.1282,2.128,2.1279,2.1277,2.1279,2.1281,2.1282,0,0,0,0,0,0,0,0,0,0,0,0,0,2.1294,2.1282,2.1327,2.1304,2.1301,2.1329,2.1329,2.1329,2.1282,2.128,2.1278,2.1277,2.1279,2.1281,2.1283,2.1332,0,0,2.1288,2.1289,0,0,0,0,0,0,0,0,2.1293,2.1295,2.1307,2.1305,2.1303,2.1303,2.1313,2.133,2.1283,2.129,2.1278,2.1276,2.1289,2.129,2.1295,2.1332,2.1332,2.1288,2.129,2.129,2.1291,0,0,0,0,0,0,0,2.1292,2.1295,2.1327,2.1307,2.1305,2.1293,2.1293,2.1316,2.13,2.1289,2.1285,2.1286,2.1288,2.1293,2.1294,2.1332,2.1288,2.129,2.1291,2.1292,2.141,2.1412,0,0,0,0,0,0,2.1295,2.1295,2.1327,2.1328,2.1293,2.1295,2.1295,2.1305,2.13,2.1297,2.1288,2.1284,2.1291,2.1292,2.1294,2.1351,2.129,2.1292,2.1293,2.1408,2.141,2.1412,0,0,0,0,0,0,2.1294,2.1298,2.1327,2.131,2.1313,2.1298,2.131,2.1306,2.1311,2.1299,2.1296,2.1296,2.1289,2.1292,2.1323,2.135,2.1293,2.1295,2.1405,2.1408,2.1411,2.1465,0,0,0,0,0,0,2.1293,2.1298,2.1317,2.1311,2.1314,2.1356,2.1311,2.1307,2.1315,2.131,2.1306,2.1304,2.1288,2.132,2.1325,2.1352,2.1296,2.1403,2.1407,2.141,2.1461,2.147,2.1478,0,0,0,0,0,2.1291,2.1332,2.1318,2.1322,2.1337,2.1358,2.136,2.1341,2.1317,2.1336,2.1328,2.1304,2.1347,2.1324,2.1328,2.1357,2.1401,2.1406,2.141,2.1457,2.1468,2.1477,0,0,0,0,0,0,2.1342,2.1331,2.1315,2.1356,2.1358,2.135,2.1373,2.1353,2.1363,2.1358,2.1334,2.1333,2.1368,2.1366,2.134,2.1404,2.137,2.1375,2.1404,2.1414,2.1422,2.1422,2.1298,0,0,0,0,0,2.1357,2.1375,2.1365,2.1402,2.1404,2.1388,2.1397,2.1382,2.1383,2.1384,2.1379,2.1381,2.1395,2.1405,2.1417,2.1461,2.1459,2.1482,2.1491,2.1497,2.1502,2.1525,2.1535,2.1427,2.1427,2.1427,0,0,2.139,2.1387,2.1399,2.1412,2.1412,2.143,2.1389,2.1411,2.1424,2.1387,2.1416,2.1413,2.1413,2.1451,2.1467,2.145,2.1532,2.1503,2.1509,2.151,2.153,2.154,2.155,2.143,2.143,2.1429,0,0,2.1459,2.1459,2.1489,2.149,2.1491,2.148,2.1487,2.1482,2.1478,2.1507,2.1479,2.1495,2.152,2.1521,2.1525,2.1595,2.1573,2.16,2.1642,2.1664,2.1673,2.168,2.1704,2.1713,2.1605,2.1605,2.1605,0,2.15,2.1527,2.1507,2.153,2.1536,2.1503,2.1533,2.1535,2.154,2.1545,2.1525,2.1555,2.1553,2.1591,2.1608,2.1612,2.1619,2.16,2.1673,2.168,2.1687,2.171,2.1719,2.1608,2.1608,2.1607,2.1607,0,2.1576,2.1595,2.1619,2.1625,2.1633,2.166,2.1643,2.1655,2.1639,2.1631,2.166,2.1657,2.1668,2.1676,2.1661,2.1711,2.17,2.1677,2.1642,2.1701,2.1721,2.173,2.1613,2.1612,2.1611,2.161,0,0,2.1677,2.167,2.1679,2.1681,2.168,2.1694,2.1719,2.1729,2.1739,2.1744,2.1763,2.1785,2.1764,2.1769,2.1754,2.1773,2.1828,2.1748,2.1748,2.1762,2.1881,2.1898,2.1908,2.1813,2.1815,2.1816,2.1881,0,2.1743,2.1785,2.1767,2.1811,2.1828,2.1797,2.1819,2.182,2.1813,2.1826,2.1818,2.1833,2.1805,2.1807,2.1825,2.1817,2.1851,2.1812,2.1831,2.1832,2.1831,2.1919,2.1937,2.1998,2.1889,2.189,2.1891,0,2.1826,2.1833,2.1879,2.1873,2.188,2.19,2.1907,2.1921,2.1922,2.1915,2.192,2.1901,2.1924,2.189,2.1922,2.1896,2.1903,2.19,2.1902,2.1903,2.1865,2.1921,2.2017,2.2026,2.1904,2.1903,2.1902,0,2.1893,2.1915,2.1945,2.1947,2.1942,2.1957,2.1955,2.1954,2.1961,2.1968,2.1973,2.1983,2.1988,2.1996,2.1979,2.1956,2.2013,2.1978,2.2008,2.2009,2.2021,2.202,2.2118,2.2027,2.2027,2.2026,2.2026,0,2.1969,2.1997,2.1975,2.1993,2.2024,2.2003,2.2035,2.203,2.2029,2.2045,2.202,2.2036,2.2014,2.2028,2.2015,2.2043,2.2046,2.2041,2.2037,2.2043,2.2043,2.2046,2.2041,2.2029,2.2028,2.2028,2.2027,0,2.2049,2.2035,2.2065,2.2058,2.2057,2.208,2.2074,2.209,2.2081,2.2102,2.2106,2.2092,2.2107,2.2092,2.2106,2.2097,2.2134,2.2125,2.2134,2.2131,2.2162,2.2159,2.2264,2.2277,2.2178,2.2179,2.218,0,2.2098,2.2119,2.2114,2.2123,2.2123,2.2138,2.2145,2.2126,2.2135,2.2137,2.2153,2.2165,2.2174,2.22,2.219,2.2201,2.2191,2.2227,2.2192,2.2197,2.219,2.2189,2.2191,2.2234,2.2235,2.2236,2.2237,0,2.2185,2.2177,2.2188,2.2197,2.2207,2.2213,2.2217,2.2226,2.2206,2.2217,2.2232,2.2239,2.2253,2.2265,2.2273,2.2271,2.2251,2.2248,2.2256,2.2261,2.2265,2.2263,2.2153,2.2246,2.2245,2.2244,2.2244,2.2243,2.225,2.2267,2.2266,2.228,2.2281,2.2285,2.23,2.2293,2.2305,2.2315,2.2303,2.2321,2.232,2.2329,2.2329,2.2343,2.2328,2.2338,2.2341,2.2344,2.2348,2.2264,2.2345,2.2344,2.2344,2.2344,2.2344,0,2.2335,2.2333,2.2346,2.2352,2.2363,2.2343,2.2346,2.2356,2.2373,2.2374,2.2383,2.24,2.2412,2.2404,2.2415,2.2427,2.2418,2.2431,2.2429,2.2429,2.2362,2.2354,2.2438,2.2438,2.2438,2.2438,2.2438,2.2438,2.2381,2.2409,2.2401,2.2429,2.2426,2.2443,2.2447,2.2451,2.2452,2.2472,2.2482,2.2476,2.2474,2.2484,2.2494,2.2491,2.2496,2.2512,2.2506,2.2443,2.2434,2.2425,2.2417,2.2513,2.2513,2.2571,2.2572,2.2572]}]]